Regional Weather Roundup
Issued by NWS

Home | Current Version | Previous Version | Graphics & Text | Print | Product List | Glossary On
Versions: 1 2 3 4 5 6 7 8 9 10 11 12 13 14 15 16 17 18 19 20 21 22 23 24 25 26 27
000
ASUS45 KSLC 281210
RWRUT

UTAH REGIONAL WEATHER ROUNDUP
NATIONAL WEATHER SERVICE SALT LAKE CITY UT
600 AM MDT WED SEP 28 2016

UTZ001>011-023>025-281300-

NORTHERN UTAH

CITY           SKY/WX    TMP DP  RH WIND       PRES   REMARKS
BRIGHAM CITY     N/A     49  45  85 CALM      30.17S
HILL AFB       CLEAR     56  42  59 E17       30.17S
LOGAN          CLEAR     47  44  90 CALM      30.19R
OGDEN          CLEAR     56  49  77 N7        30.16S
PROVO AIRPORT  CLEAR     48  42  80 CALM      30.20R
SALT LAKE CITY CLEAR     55  47  74 SE7       30.15S
VERNAL         CLEAR     45  41  86 NW3       30.26R
WENDOVER       PTCLDY    52  43  71 CALM      30.16R
HEBER CITY     CLEAR     37  36  93 CALM      30.26R
WEST JORDAN    CLEAR     57  45  62 SW7       30.18R

$$

UTZ012>022-026-027-281300-

SOUTHERN/CENTRAL UTAH

CITY           SKY/WX    TMP DP  RH WIND       PRES   REMARKS
BLANDING       CLEAR     51  32  49 N7        30.33R
BRYCE CANYON   PTCLDY    38  33  82 W6        30.36S WCI  33
CEDAR CITY     MOCLDY    46  36  68 CALM      30.21S
DELTA          CLEAR     50  41  71 S3        30.18R
MILFORD        CLEAR     49  33  54 SW6       30.20R
MOAB/CYNLANDS  CLEAR     48  37  65 CALM      30.17S
PRICE          CLEAR     48  38  68 NE6       30.26R
ST GEORGE      MOSUNNY   66  43  42 E3        30.10R

$$

REGIONAL REPORTS     COLORADO/ARIZONA

CITY           SKY/WX    TMP DP  RH WIND       PRES   REMARKS
CRAIG, CO      CLOUDY    34  31  88 CALM      30.33R
GRAND JUNCTION CLEAR     56  36  47 E10       30.22R
RIFLE          CLOUDY    46  39  76 S3        30.28S
MONTROSE       CLOUDY    45  36  70 S5        30.30R
CORTEZ         CLEAR     41  35  79 E5        30.29S
PAGE, AZ       MOCLDY    62  41  46 CALM      30.15S
GRAND CANYON   PTCLDY    44  40  85 NE3       30.28R
KINGMAN        CLOUDY    67  44  43 CALM      30.08R
FLAGSTAFF      CLOUDY    42  41  96 CALM      30.29R

$$

REGIONAL REPORTS    NEVADA/IDAHO/WYOMING

CITY           SKY/WX    TMP DP  RH WIND       PRES   REMARKS
LAS VEGAS, NV  MOCLDY    74  48  39 N6        30.01R
ELY            CLEAR     38  29  70 S8        30.25F WCI  32
ELKO           CLEAR     46  37  71 NE5       30.17R
POCATELLO, ID  CLEAR     43  41  93 CALM      30.18R
BURLEY         CLEAR     44  43  96 N3        30.12S
EVANSTON, WY   CLOUDY    52  35  52 E3        30.33S
ROCK SPRINGS   CLOUDY    47  36  65 E7        30.34R

$$




USA.gov is the U.S. government's official web portal to all federal, state and local government web resources and services.